| time (UTC) | temp F | wind direction | speed MPH | gust MPH | rain 1hr in | rain 24hr in | rain mn in | humidity % | barometer mb |
| 20260510224504 | 55 | 0 | 0.0 | 0.0 | 0.00 | 0.20 | 0.00 | 98 | 1009.1 |
| 20260510223603 | 55 | 0 | 0.0 | 0.0 | 0.00 | 0.20 | 0.00 | 98 | 1009.1 |
| 20260510222705 | 55 | 0 | 0.0 | 0.0 | 0.00 | 0.20 | 0.00 | 98 | 1009.1 |
| 20260510221806 | 56 | 0 | 0.0 | 0.0 | 0.00 | 0.20 | 0.00 | 98 | 1009.1 |
| 20260510220903 | 56 | 0 | 0.0 | 0.0 | 0.00 | 0.20 | 0.00 | 98 | 1009.1 |
| 20260510220004 | 56 | 0 | 0.0 | 0.0 | 0.00 | 0.20 | 0.00 | 98 | 1009.1 |
| 20260510215403 | 56 | 0 | 0.0 | 0.0 | 0.00 | 0.20 | 0.20 | 98 | 1009.1 |
| 20260510214503 | 56 | 0 | 0.0 | 0.0 | 0.00 | 0.20 | 0.20 | 98 | 1009.1 |
| 20260510213603 | 57 | 0 | 0.0 | 0.0 | 0.00 | 0.20 | 0.20 | 98 | 1009.1 |
| 20260510212703 | 57 | 0 | 0.0 | 0.0 | 0.00 | 0.20 | 0.20 | 98 | 1009.1 |
| 20260510211803 | 57 | 0 | 0.0 | 0.0 | 0.00 | 0.20 | 0.20 | 98 | 1009.1 |
| 20260510211113 | 57 | 0 | 0.0 | 0.0 | 0.00 | 0.20 | 0.20 | 98 | 1009.1 |
| 20260510210003 | 58 | 0 | 0.0 | 0.0 | 0.00 | 0.20 | 0.20 | 98 | 1009.1 |
| 20260510205403 | 58 | 0 | 0.0 | 0.0 | 0.00 | 0.20 | 0.20 | 98 | 1009.1 |
| 20260510204503 | 58 | 0 | 0.0 | 0.0 | 0.00 | 0.20 | 0.20 | 98 | 1009.1 |
| 20260510203603 | 58 | 0 | 0.0 | 0.0 | 0.00 | 0.20 | 0.20 | 98 | 1009.1 |
| 20260510202914 | 58 | 0 | 0.0 | 0.0 | 0.00 | 0.20 | 0.20 | 98 | 1009.1 |
| 20260510201803 | 58 | 0 | 0.0 | 0.0 | 0.00 | 0.20 | 0.20 | 98 | 1009.1 |
| 20260510200903 | 58 | 0 | 0.0 | 0.0 | 0.00 | 0.20 | 0.20 | 98 | 1009.1 |
| 20260510200003 | 58 | 0 | 0.0 | 0.0 | 0.00 | 0.20 | 0.20 | 98 | 1009.1 |
| 20260510195404 | 59 | 0 | 0.0 | 0.0 | 0.00 | 0.20 | 0.20 | 98 | 1008.1 |
| 20260510194713 | 59 | 0 | 0.0 | 0.0 | 0.00 | 0.20 | 0.20 | 98 | 1008.1 |
| 20260510193603 | 59 | 0 | 0.0 | 0.0 | 0.00 | 0.20 | 0.20 | 98 | 1008.1 |
| 20260510192703 | 59 | 0 | 0.0 | 0.0 | 0.00 | 0.20 | 0.20 | 97 | 1008.1 |
| 20260510191803 | 59 | 0 | 0.0 | 0.0 | 0.00 | 0.20 | 0.20 | 97 | 1008.1 |
| 20260510190905 | 59 | 0 | 0.0 | 0.0 | 0.00 | 0.20 | 0.20 | 96 | 1008.1 |
| 20260510190005 | 59 | 0 | 0.0 | 0.0 | 0.00 | 0.20 | 0.20 | 96 | 1008.1 |
| 20260510185613 | 60 | 0 | 0.0 | 0.0 | 0.00 | 0.20 | 0.20 | 96 | 1008.1 |
| 20260510184505 | 60 | 0 | 0.0 | 0.0 | 0.00 | 0.20 | 0.20 | 96 | 1008.1 |
| 20260510183603 | 60 | 0 | 0.0 | 0.0 | 0.00 | 0.20 | 0.20 | 95 | 1007.1 |
| 20260510182703 | 60 | 0 | 0.0 | 0.0 | 0.00 | 0.20 | 0.20 | 95 | 1007.1 |
| 20260510181805 | 60 | 0 | 0.0 | 0.0 | 0.00 | 0.20 | 0.20 | 95 | 1007.1 |
| 20260510180903 | 60 | 0 | 0.0 | 0.0 | 0.00 | 0.20 | 0.20 | 94 | 1007.1 |
| 20260510180217 | 60 | 0 | 0.0 | 0.0 | 0.00 | 0.20 | 0.20 | 94 | 1007.1 |
| 20260510175403 | 61 | 0 | 0.0 | 0.0 | 0.00 | 0.20 | 0.20 | 94 | 1007.1 |
| 20260510174503 | 61 | 0 | 0.0 | 0.0 | 0.00 | 0.20 | 0.20 | 94 | 1007.1 |
| 20260510173603 | 61 | 0 | 0.0 | 0.0 | 0.00 | 0.20 | 0.20 | 94 | 1007.1 |
| 20260510172703 | 61 | 0 | 0.0 | 0.0 | 0.00 | 0.20 | 0.20 | 95 | 1007.1 |
| 20260510171803 | 60 | 0 | 0.0 | 0.0 | 0.00 | 0.20 | 0.20 | 94 | 1007.1 |
| 20260510171113 | 60 | 0 | 0.0 | 0.0 | 0.00 | 0.20 | 0.20 | 95 | 1007.1 |
| 20260510170004 | 60 | 90 | 3.0 | 3.0 | 0.00 | 0.20 | 0.20 | 95 | 1007.1 |
| 20260510165403 | 60 | 0 | 0.0 | 0.0 | 0.04 | 0.20 | 0.20 | 95 | 1007.1 |
| 20260510164503 | 60 | 0 | 0.0 | 0.0 | 0.08 | 0.20 | 0.20 | 95 | 1007.1 |
| 20260510163603 | 59 | 0 | 0.0 | 0.0 | 0.08 | 0.20 | 0.20 | 94 | 1007.1 |
| 20260510162703 | 58 | 0 | 0.0 | 0.0 | 0.12 | 0.20 | 0.20 | 93 | 1008.1 |
| 20260510162013 | 58 | 90 | 0.0 | 3.0 | 0.16 | 0.20 | 0.20 | 92 | 1008.1 |
| 20260510160903 | 57 | 0 | 0.0 | 0.0 | 0.20 | 0.20 | 0.20 | 90 | 1009.1 |
| 20260510160214 | 57 | 0 | 0.0 | 0.0 | 0.20 | 0.20 | 0.20 | 88 | 1009.1 |
| 20260510155406 | 57 | 0 | 0.0 | 0.0 | 0.16 | 0.16 | 0.16 | 87 | 1009.1 |
| 20260510154503 | 58 | 202 | 0.0 | 1.0 | 0.12 | 0.12 | 0.12 | 85 | 1009.1 |
| 20260510153604 | 58 | 225 | 0.0 | 3.0 | 0.12 | 0.12 | 0.12 | 83 | 1009.1 |
| 20260510152914 | 59 | 219 | 0.0 | 3.0 | 0.08 | 0.08 | 0.08 | 82 | 1009.1 |
| 20260510151803 | 60 | 212 | 0.0 | 3.0 | 0.04 | 0.04 | 0.04 | 78 | 1009.1 |
| 20260510150905 | 61 | 209 | 2.0 | 3.0 | 0.00 | 0.00 | 0.00 | 75 | 1008.1 |
| 20260510150005 | 65 | 225 | 0.0 | 4.0 | 0.00 | 0.00 | 0.00 | 72 | 1008.1 |
| 20260510145403 | 66 | 225 | 0.0 | 4.0 | 0.00 | 0.00 | 0.00 | 70 | 1008.1 |
| 20260510144505 | 66 | 0 | 0.0 | 0.0 | 0.00 | 0.00 | 0.00 | 68 | 1008.1 |
| 20260510143605 | 67 | 341 | 0.0 | 3.0 | 0.00 | 0.00 | 0.00 | 67 | 1007.1 |
| 20260510142703 | 68 | 315 | 0.0 | 3.0 | 0.00 | 0.00 | 0.00 | 64 | 1007.1 |
| 20260510141805 | 69 | 315 | 3.0 | 3.0 | 0.00 | 0.00 | 0.00 | 61 | 1007.1 |
| 20260510141118 | 71 | 337 | 0.0 | 3.0 | 0.00 | 0.00 | 0.00 | 60 | 1007.1 |
| 20260510140005 | 71 | 255 | 0.0 | 3.0 | 0.00 | 0.00 | 0.00 | 59 | 1007.1 |
| 20260510135405 | 72 | 322 | 2.0 | 6.0 | 0.00 | 0.00 | 0.00 | 58 | 1007.1 |
| 20260510134503 | 71 | 307 | 6.0 | 6.0 | 0.00 | 0.00 | 0.00 | 59 | 1007.1 |
| 20260510133817 | 71 | 307 | 2.0 | 6.0 | 0.00 | 0.00 | 0.00 | 57 | 1007.1 |
| 20260510132704 | 72 | 324 | 2.0 | 4.0 | 0.00 | 0.00 | 0.00 | 59 | 1007.1 |
| 20260510131806 | 71 | 321 | 4.0 | 4.0 | 0.00 | 0.00 | 0.00 | 57 | 1007.1 |
| 20260510130903 | 72 | 323 | 3.0 | 5.0 | 0.00 | 0.00 | 0.00 | 58 | 1007.1 |
| 20260510130006 | 72 | 319 | 0.0 | 3.0 | 0.00 | 0.00 | 0.00 | 59 | 1007.1 |
| 20260510125403 | 72 | 320 | 2.0 | 4.0 | 0.00 | 0.00 | 0.00 | 60 | 1008.1 |
| 20260510124714 | 72 | 281 | 4.0 | 5.0 | 0.00 | 0.00 | 0.00 | 62 | 1008.1 |
| 20260510123603 | 71 | 270 | 3.0 | 4.0 | 0.00 | 0.00 | 0.00 | 65 | 1008.1 |
| 20260510122703 | 72 | 319 | 0.0 | 5.0 | 0.00 | 0.00 | 0.00 | 63 | 1008.1 |
| 20260510121803 | 73 | 225 | 0.0 | 5.0 | 0.00 | 0.00 | 0.00 | 63 | 1008.1 |
| 20260510120905 | 72 | 299 | 0.0 | 7.0 | 0.00 | 0.00 | 0.00 | 61 | 1008.1 |
| 20260510120005 | 72 | 315 | 0.0 | 3.0 | 0.00 | 0.00 | 0.00 | 61 | 1008.1 |
| 20260510115405 | 73 | 264 | 0.0 | 6.0 | 0.00 | 0.00 | 0.00 | 62 | 1008.1 |
| 20260510114716 | 73 | 293 | 0.0 | 3.0 | 0.00 | 0.00 | 0.00 | 60 | 1008.1 |
| 20260510113603 | 72 | 322 | 3.0 | 3.0 | 0.00 | 0.00 | 0.00 | 61 | 1008.1 |
| 20260510112703 | 72 | 315 | 0.0 | 4.0 | 0.00 | 0.00 | 0.00 | 65 | 1008.1 |
| 20260510111803 | 71 | 227 | 0.0 | 3.0 | 0.00 | 0.00 | 0.00 | 65 | 1008.1 |
| 20260510111115 | 71 | 202 | 0.0 | 3.0 | 0.00 | 0.00 | 0.00 | 65 | 1009.1 |
| 20260510110005 | 70 | 0 | 0.0 | 0.0 | 0.00 | 0.00 | 0.00 | 66 | 1009.1 |
| 20260510105403 | 71 | 0 | 0.0 | 0.0 | 0.00 | 0.00 | 0.00 | 66 | 1009.1 |
| 20260510104713 | 71 | 0 | 0.0 | 0.0 | 0.00 | 0.00 | 0.00 | 68 | 1009.1 |
| 20260510103813 | 69 | 0 | 0.0 | 0.0 | 0.00 | 0.00 | 0.00 | 69 | 1009.1 |
| 20260510102703 | 71 | 279 | 0.0 | 2.0 | 0.00 | 0.00 | 0.00 | 69 | 1008.1 |
| 20260510101805 | 71 | 185 | 0.0 | 1.0 | 0.00 | 0.00 | 0.00 | 70 | 1008.1 |
| 20260510100904 | 69 | 225 | 0.0 | 1.0 | 0.00 | 0.00 | 0.00 | 71 | 1009.1 |
| 20260510100003 | 70 | 225 | 0.0 | 1.0 | 0.00 | 0.00 | 0.00 | 70 | 1009.1 |
| 20260510095403 | 71 | 0 | 0.0 | 0.0 | 0.00 | 0.00 | 0.00 | 70 | 1009.1 |
| 20260510094504 | 70 | 202 | 0.0 | 3.0 | 0.00 | 0.00 | 0.00 | 70 | 1009.1 |
| 20260510093603 | 69 | 0 | 0.0 | 0.0 | 0.00 | 0.00 | 0.00 | 72 | 1009.1 |
| 20260510092703 | 69 | 0 | 0.0 | 0.0 | 0.00 | 0.00 | 0.00 | 73 | 1008.1 |
| 20260510091803 | 68 | 202 | 0.0 | 3.0 | 0.00 | 0.00 | 0.00 | 73 | 1008.1 |
| 20260510090904 | 68 | 180 | 0.0 | 1.0 | 0.00 | 0.00 | 0.00 | 74 | 1008.1 |
| 20260510090006 | 67 | 180 | 0.0 | 1.0 | 0.00 | 0.00 | 0.00 | 73 | 1008.1 |
| 20260510085403 | 67 | 180 | 0.0 | 1.0 | 0.00 | 0.00 | 0.00 | 74 | 1008.1 |
| 20260510084714 | 67 | 0 | 0.0 | 0.0 | 0.00 | 0.00 | 0.00 | 74 | 1008.1 |
| 20260510083605 | 67 | 0 | 0.0 | 0.0 | 0.00 | 0.00 | 0.00 | 74 | 1008.1 |
| 20260510082705 | 67 | 202 | 0.0 | 2.0 | 0.00 | 0.00 | 0.00 | 75 | 1008.1 |
| 20260510081803 | 67 | 198 | 2.0 | 2.0 | 0.00 | 0.00 | 0.00 | 75 | 1008.1 |
| 20260510081114 | 67 | 219 | 1.0 | 2.0 | 0.00 | 0.00 | 0.00 | 75 | 1008.1 |
| 20260510080213 | 67 | 180 | 0.0 | 1.0 | 0.00 | 0.00 | 0.00 | 76 | 1008.1 |
| 20260510075403 | 66 | 202 | 0.0 | 4.0 | 0.00 | 0.00 | 0.00 | 77 | 1008.1 |
| 20260510074505 | 66 | 208 | 0.0 | 2.0 | 0.00 | 0.00 | 0.00 | 78 | 1008.1 |
| 20260510073605 | 66 | 202 | 0.0 | 1.0 | 0.00 | 0.00 | 0.00 | 79 | 1007.1 |
| 20260510072703 | 65 | 187 | 0.0 | 1.0 | 0.00 | 0.00 | 0.00 | 80 | 1007.1 |
| 20260510071803 | 65 | 182 | 1.0 | 5.0 | 0.00 | 0.00 | 0.00 | 81 | 1007.1 |
| 20260510070903 | 64 | 180 | 3.0 | 5.0 | 0.00 | 0.00 | 0.00 | 83 | 1007.1 |
| 20260510070003 | 63 | 133 | 0.0 | 5.0 | 0.00 | 0.00 | 0.00 | 84 | 1007.1 |
| 20260510065615 | 63 | 161 | 0.0 | 5.0 | 0.00 | 0.00 | 0.00 | 84 | 1007.1 |
| 20260510064506 | 62 | 185 | 0.0 | 3.0 | 0.00 | 0.00 | 0.00 | 87 | 1007.1 |
| 20260510063605 | 61 | 202 | 2.0 | 3.0 | 0.00 | 0.00 | 0.00 | 90 | 1007.1 |
| 20260510062913 | 60 | 0 | 0.0 | 0.0 | 0.00 | 0.00 | 0.00 | 92 | 1007.1 |
| 20260510061805 | 58 | 180 | 0.0 | 2.0 | 0.00 | 0.00 | 0.00 | 94 | 1007.1 |
| 20260510060903 | 57 | 0 | 0.0 | 0.0 | 0.00 | 0.00 | 0.00 | 95 | 1007.1 |
| 20260510060005 | 57 | 0 | 0.0 | 0.0 | 0.00 | 0.00 | 0.00 | 95 | 1007.1 |
| 20260510055616 | 57 | 0 | 0.0 | 0.0 | 0.00 | 0.00 | 0.00 | 95 | 1007.1 |
| 20260510054503 | 56 | 0 | 0.0 | 0.0 | 0.00 | 0.00 | 0.00 | 96 | 1007.1 |
| 20260510053603 | 56 | 0 | 0.0 | 0.0 | 0.00 | 0.00 | 0.00 | 96 | 1007.1 |
| 20260510052703 | 56 | 0 | 0.0 | 0.0 | 0.00 | 0.00 | 0.00 | 96 | 1006.1 |
| 20260510051803 | 56 | 0 | 0.0 | 0.0 | 0.00 | 0.00 | 0.00 | 96 | 1006.1 |
| 20260510050903 | 56 | 0 | 0.0 | 0.0 | 0.00 | 0.00 | 0.00 | 96 | 1007.1 |
| 20260510050214 | 56 | 0 | 0.0 | 0.0 | 0.00 | 0.00 | 0.00 | 96 | 1007.1 |
| 20260510045614 | 56 | 0 | 0.0 | 0.0 | 0.00 | 0.00 | 0.00 | 96 | 1007.1 |
| 20260510044713 | 56 | 0 | 0.0 | 0.0 | 0.00 | 0.00 | 0.00 | 95 | 1007.1 |
| 20260510043603 | 56 | 0 | 0.0 | 0.0 | 0.00 | 0.00 | 0.00 | 95 | 1006.1 |
| 20260510042703 | 56 | 0 | 0.0 | 0.0 | 0.00 | 0.00 | 0.00 | 95 | 1006.1 |
| 20260510041803 | 57 | 0 | 0.0 | 0.0 | 0.00 | 0.00 | 0.00 | 95 | 1006.1 |
| 20260510040903 | 57 | 0 | 0.0 | 0.0 | 0.00 | 0.00 | 0.00 | 95 | 1006.1 |
| 20260510040005 | 57 | 0 | 0.0 | 0.0 | 0.00 | 0.00 | 0.00 | 94 | 1006.1 |
| 20260510035615 | 57 | 0 | 0.0 | 0.0 | 0.00 | 0.00 | 0.00 | 94 | 1007.1 |
| 20260510034715 | 57 | 0 | 0.0 | 0.0 | 0.00 | 0.00 | 0.00 | 94 | 1007.1 |
| 20260510033603 | 57 | 0 | 0.0 | 0.0 | 0.00 | 0.00 | 0.00 | 93 | 1007.1 |
| 20260510032915 | 57 | 0 | 0.0 | 0.0 | 0.00 | 0.00 | 0.00 | 93 | 1007.1 |
| 20260510031803 | 58 | 0 | 0.0 | 0.0 | 0.00 | 0.00 | 0.00 | 93 | 1007.1 |
| 20260510030903 | 58 | 0 | 0.0 | 0.0 | 0.00 | 0.00 | 0.00 | 94 | 1007.1 |
| 20260510030004 | 58 | 0 | 0.0 | 0.0 | 0.00 | 0.00 | 0.00 | 94 | 1007.1 |
| 20260510025403 | 58 | 0 | 0.0 | 0.0 | 0.00 | 0.00 | 0.00 | 94 | 1007.1 |
| 20260510024503 | 58 | 0 | 0.0 | 0.0 | 0.00 | 0.00 | 0.00 | 94 | 1007.1 |
| 20260510023814 | 58 | 0 | 0.0 | 0.0 | 0.00 | 0.00 | 0.00 | 94 | 1007.1 |
| 20260510022703 | 58 | 0 | 0.0 | 0.0 | 0.00 | 0.00 | 0.00 | 95 | 1007.1 |
| 20260510021805 | 58 | 0 | 0.0 | 0.0 | 0.00 | 0.00 | 0.00 | 95 | 1007.1 |
| 20260510020905 | 58 | 0 | 0.0 | 0.0 | 0.00 | 0.00 | 0.00 | 95 | 1007.1 |
| 20260510020215 | 58 | 0 | 0.0 | 0.0 | 0.00 | 0.00 | 0.00 | 95 | 1007.1 |
| 20260510015403 | 58 | 0 | 0.0 | 0.0 | 0.00 | 0.00 | 0.00 | 95 | 1007.1 |
| 20260510014503 | 58 | 0 | 0.0 | 0.0 | 0.00 | 0.00 | 0.00 | 95 | 1007.1 |
| 20260510013603 | 58 | 0 | 0.0 | 0.0 | 0.00 | 0.00 | 0.00 | 95 | 1007.1 |
| 20260510012703 | 58 | 0 | 0.0 | 0.0 | 0.00 | 0.00 | 0.00 | 94 | 1007.1 |
| 20260510011803 | 58 | 0 | 0.0 | 0.0 | 0.00 | 0.00 | 0.00 | 94 | 1007.1 |
| 20260510010903 | 57 | 0 | 0.0 | 0.0 | 0.00 | 0.00 | 0.00 | 94 | 1007.1 |
| 20260510010213 | 57 | 0 | 0.0 | 0.0 | 0.00 | 0.00 | 0.00 | 94 | 1007.1 |
| 20260510005403 | 57 | 0 | 0.0 | 0.0 | 0.00 | 0.00 | 0.00 | 94 | 1007.1 |
| 20260510004505 | 57 | 0 | 0.0 | 0.0 | 0.00 | 0.00 | 0.00 | 93 | 1007.1 |
| 20260510003603 | 57 | 0 | 0.0 | 0.0 | 0.00 | 0.00 | 0.00 | 93 | 1007.1 |
| 20260510002703 | 58 | 0 | 0.0 | 0.0 | 0.00 | 0.00 | 0.00 | 93 | 1007.1 |
| 20260510001805 | 58 | 0 | 0.0 | 0.0 | 0.00 | 0.00 | 0.00 | 92 | 1007.1 |
| 20260510001113 | 58 | 0 | 0.0 | 0.0 | 0.00 | 0.00 | 0.00 | 92 | 1007.1 |
| 20260510000004 | 58 | 0 | 0.0 | 0.0 | 0.00 | 0.00 | 0.00 | 92 | 1007.1 |
| 20260509235403 | 58 | 0 | 0.0 | 0.0 | 0.00 | 0.00 | 0.00 | 92 | 1007.1 |
| 20260509234504 | 59 | 0 | 0.0 | 0.0 | 0.00 | 0.00 | 0.00 | 92 | 1007.1 |
| 20260509233605 | 59 | 0 | 0.0 | 0.0 | 0.00 | 0.00 | 0.00 | 91 | 1007.1 |
| 20260509232703 | 59 | 0 | 0.0 | 0.0 | 0.00 | 0.00 | 0.00 | 91 | 1007.1 |
| 20260509232015 | 60 | 90 | 0.0 | 3.0 | 0.00 | 0.00 | 0.00 | 91 | 1008.1 |
| 20260509230905 | 60 | 0 | 0.0 | 0.0 | 0.00 | 0.00 | 0.00 | 91 | 1008.1 |
| 20260509230005 | 61 | 0 | 0.0 | 0.0 | 0.00 | 0.00 | 0.00 | 91 | 1008.1 |
| 20260509225403 | 61 | 0 | 0.0 | 0.0 | 0.00 | 0.00 | 0.00 | 91 | 1008.1 |